ENT7PK EPWA-LOWW

Flight info

Callsign ENT7PK
Flight time 0h 52m
Altitude 34000
Route EVINA N744 TUSIN DCT MIKOV MIKOV8W
Aircraft B738/M-SDE2E3FGHIRWXY/LB1

Departure

Time 2026-05-07 19:46
Airport Warsaw Chopin Airport (EPWA)

Arrival

Time 2026-05-07 20:38
Airport Vienna International Airport (LOWW)
Time Latitude Longitude Altitude Speed Heading
2026-05-07 19:21 52.15790 20.98036 339 ft 0 kts 114°
2026-05-07 19:43 52.15789 20.98041 339 ft 1 kts 115°
2026-05-07 19:43 52.15775 20.98089 340 ft 7 kts 114°
2026-05-07 19:43 52.15804 20.98153 340 ft 10 kts 25°
2026-05-07 19:43 52.15844 20.98183 339 ft 1 kts 25°
2026-05-07 19:44 52.15882 20.98211 338 ft 10 kts 25°
2026-05-07 19:44 52.15960 20.98270 336 ft 13 kts 24°
2026-05-07 19:44 52.16042 20.98331 335 ft 12 kts 25°
2026-05-07 19:44 52.16105 20.98352 335 ft 7 kts 336°
2026-05-07 19:45 52.16132 20.98293 335 ft 4 kts 293°
2026-05-07 19:45 52.16202 20.98039 333 ft 66 kts 295°
2026-05-07 19:45 52.16519 20.96910 334 ft 152 kts 295°
2026-05-07 19:45 52.17046 20.95054 678 ft 198 kts 295°
2026-05-07 19:46 52.17621 20.92967 1165 ft 210 kts 295°
2026-05-07 19:46 52.18244 20.90728 1872 ft 227 kts 294°
2026-05-07 19:46 52.18914 20.88310 2574 ft 240 kts 294°
2026-05-07 19:46 52.19605 20.85802 3280 ft 243 kts 292°
2026-05-07 19:47 52.19906 20.83104 3920 ft 246 kts 263°
2026-05-07 19:47 52.19232 20.80589 4664 ft 249 kts 231°
2026-05-07 19:47 52.18096 20.78334 5245 ft 270 kts 235°
2026-05-07 19:47 52.17049 20.75759 5792 ft 269 kts 229°
2026-05-07 19:48 52.15618 20.73875 6449 ft 271 kts 212°
2026-05-07 19:48 52.14045 20.72142 7107 ft 274 kts 214°
2026-05-07 19:48 52.12310 20.70828 7830 ft 285 kts 193°
2026-05-07 19:48 52.10350 20.70195 9186 ft 290 kts 192°
2026-05-07 19:49 52.08428 20.69411 10314 ft 295 kts 195°
2026-05-07 19:49 52.06356 20.68443 10783 ft 325 kts 196°
2026-05-07 19:49 52.04128 20.67381 11388 ft 342 kts 197°
2026-05-07 19:49 52.01815 20.66269 12078 ft 350 kts 197°
2026-05-07 19:50 51.99494 20.65147 12846 ft 354 kts 197°
2026-05-07 19:50 51.97092 20.63984 13633 ft 359 kts 197°
2026-05-07 19:50 51.94724 20.62835 14401 ft 363 kts 197°
2026-05-07 19:50 51.92270 20.61645 15187 ft 367 kts 197°
2026-05-07 19:51 51.89979 20.60535 15914 ft 371 kts 197°
2026-05-07 19:51 51.87884 20.59520 16571 ft 374 kts 197°
2026-05-07 19:51 51.86496 20.58849 17008 ft 377 kts 197°
2026-05-07 19:51 51.84208 20.57712 17740 ft 381 kts 200°
2026-05-07 19:52 51.81044 20.54857 18878 ft 386 kts 217°
2026-05-07 19:52 51.80900 20.54685 18942 ft 386 kts 217°
2026-05-07 19:52 51.77407 20.50641 20421 ft 396 kts 214°
2026-05-07 19:53 51.74830 20.47887 21455 ft 402 kts 214°
2026-05-07 19:53 51.72460 20.45367 22393 ft 407 kts 214°
2026-05-07 19:53 51.70095 20.42851 23320 ft 410 kts 214°
2026-05-07 19:54 51.67688 20.40304 24017 ft 419 kts 213°
2026-05-07 19:54 51.65200 20.37683 24042 ft 427 kts 213°
2026-05-07 19:54 51.62742 20.35104 24085 ft 417 kts 213°
2026-05-07 19:54 51.60915 20.33189 24462 ft 413 kts 213°
2026-05-07 19:55 51.58424 20.30581 25225 ft 419 kts 213°
2026-05-07 19:55 51.56272 20.28332 25884 ft 424 kts 213°
2026-05-07 19:55 51.53773 20.25727 26640 ft 428 kts 213°
2026-05-07 19:55 51.51276 20.23128 27388 ft 431 kts 213°
2026-05-07 19:56 51.48753 20.20505 28141 ft 433 kts 213°
2026-05-07 19:56 51.46240 20.17895 29063 ft 430 kts 213°
2026-05-07 19:56 51.43745 20.15308 29974 ft 427 kts 213°
2026-05-07 19:56 51.41211 20.12686 30738 ft 427 kts 213°
2026-05-07 19:57 51.38727 20.10119 31358 ft 429 kts 213°
2026-05-07 19:57 51.36201 20.07512 31991 ft 431 kts 213°
2026-05-07 19:57 51.33673 20.04906 32622 ft 431 kts 213°
2026-05-07 19:57 51.31166 20.02326 33244 ft 432 kts 212°
2026-05-07 19:58 51.28605 19.99694 33587 ft 440 kts 213°
2026-05-07 19:58 51.26005 19.97025 33811 ft 450 kts 213°
2026-05-07 19:58 51.23373 19.94328 34010 ft 457 kts 212°
2026-05-07 19:58 51.20683 19.91575 34019 ft 458 kts 213°
2026-05-07 19:59 51.15325 19.86101 34021 ft 454 kts 213°
2026-05-07 19:59 51.10037 19.80716 34021 ft 454 kts 213°
2026-05-07 20:00 51.04698 19.75294 34021 ft 455 kts 213°
2026-05-07 20:00 50.99343 19.69869 34019 ft 455 kts 213°
2026-05-07 20:01 50.94036 19.64507 33994 ft 455 kts 213°
2026-05-07 20:01 50.88883 19.59317 33994 ft 455 kts 213°
2026-05-07 20:02 50.84352 19.54765 33994 ft 455 kts 213°
2026-05-07 20:02 50.79032 19.49434 33994 ft 455 kts 213°
2026-05-07 20:03 50.73826 19.44230 33994 ft 455 kts 213°
2026-05-07 20:03 50.68486 19.38907 33994 ft 455 kts 213°
2026-05-07 20:04 50.63867 19.34315 33994 ft 455 kts 212°
2026-05-07 20:04 50.59227 19.29714 33994 ft 455 kts 212°
2026-05-07 20:05 50.54028 19.24568 33994 ft 455 kts 212°
2026-05-07 20:05 50.48756 19.19366 33994 ft 455 kts 212°
2026-05-07 20:06 50.43420 19.14114 33994 ft 455 kts 212°
2026-05-07 20:06 50.38155 19.08948 33994 ft 455 kts 212°
2026-05-07 20:07 50.32830 19.03735 33994 ft 455 kts 212°
2026-05-07 20:07 50.27499 18.98531 33994 ft 455 kts 212°
2026-05-07 20:08 50.22193 18.93366 33994 ft 455 kts 212°
2026-05-07 20:08 50.16852 18.88180 33994 ft 455 kts 212°
2026-05-07 20:09 50.11510 18.83007 33994 ft 455 kts 212°
2026-05-07 20:10 50.03544 18.75318 33994 ft 455 kts 212°
2026-05-07 20:10 49.98185 18.70162 33994 ft 455 kts 212°
2026-05-07 20:11 49.92847 18.65041 33994 ft 455 kts 212°
2026-05-07 20:11 49.87983 18.60331 33993 ft 455 kts 214°
2026-05-07 20:12 49.83057 18.53901 34020 ft 455 kts 228°
2026-05-07 20:12 49.79092 18.46422 34021 ft 455 kts 231°
2026-05-07 20:13 49.75128 18.38946 34021 ft 455 kts 231°
2026-05-07 20:13 49.71161 18.31492 34021 ft 455 kts 230°
2026-05-07 20:14 49.67193 18.24025 34021 ft 453 kts 230°
2026-05-07 20:14 49.63168 18.16468 34021 ft 459 kts 230°
2026-05-07 20:15 49.59141 18.08923 34020 ft 455 kts 230°
2026-05-07 20:15 49.55168 18.01501 34021 ft 452 kts 230°
2026-05-07 20:16 49.51188 17.94082 34021 ft 453 kts 230°
2026-05-07 20:16 49.47176 17.86628 34021 ft 453 kts 230°
2026-05-07 20:16 49.45160 17.82890 33581 ft 460 kts 230°
2026-05-07 20:17 49.43143 17.79154 32881 ft 458 kts 230°
2026-05-07 20:17 49.41124 17.75421 32145 ft 454 kts 230°
2026-05-07 20:17 49.39129 17.71737 31396 ft 451 kts 230°
2026-05-07 20:17 49.37162 17.68111 30644 ft 449 kts 230°
2026-05-07 20:18 49.35150 17.64403 29962 ft 450 kts 230°
2026-05-07 20:18 49.33139 17.60705 29385 ft 456 kts 230°
2026-05-07 20:18 49.31112 17.56985 28765 ft 460 kts 230°
2026-05-07 20:18 49.29086 17.53270 28137 ft 461 kts 230°
2026-05-07 20:19 49.27043 17.49530 27520 ft 461 kts 230°
2026-05-07 20:19 49.24971 17.45740 26901 ft 461 kts 230°
2026-05-07 20:19 49.22914 17.41985 26286 ft 464 kts 230°
2026-05-07 20:19 49.20851 17.38223 25666 ft 464 kts 230°
2026-05-07 20:20 49.18986 17.34931 25154 ft 452 kts 225°
2026-05-07 20:20 49.16750 17.32061 25028 ft 429 kts 214°
2026-05-07 20:20 49.14370 17.29654 24786 ft 406 kts 213°
2026-05-07 20:20 49.12100 17.27340 24520 ft 388 kts 214°
2026-05-07 20:21 49.09925 17.25027 23934 ft 380 kts 215°
2026-05-07 20:21 49.07790 17.22735 23294 ft 374 kts 215°
2026-05-07 20:21 49.05680 17.20470 22620 ft 369 kts 215°
2026-05-07 20:21 49.03630 17.18263 21969 ft 365 kts 215°
2026-05-07 20:22 49.01566 17.16037 21308 ft 360 kts 215°
2026-05-07 20:22 48.99535 17.13842 20648 ft 356 kts 215°
2026-05-07 20:22 48.97530 17.11675 19950 ft 353 kts 215°
2026-05-07 20:22 48.95535 17.09518 19258 ft 350 kts 215°
2026-05-07 20:23 48.93569 17.07394 18589 ft 347 kts 215°
2026-05-07 20:23 48.91640 17.05310 17932 ft 344 kts 215°
2026-05-07 20:23 48.89864 17.03394 17328 ft 341 kts 215°
2026-05-07 20:23 48.87872 17.01243 16649 ft 337 kts 215°
2026-05-07 20:24 48.85978 16.99201 16008 ft 334 kts 215°
2026-05-07 20:24 48.84119 16.97197 15402 ft 330 kts 215°
2026-05-07 20:24 48.82266 16.95204 14824 ft 325 kts 215°
2026-05-07 20:24 48.80441 16.93241 14348 ft 317 kts 215°
2026-05-07 20:25 48.78680 16.91350 13931 ft 316 kts 215°
2026-05-07 20:25 48.76879 16.89417 13505 ft 315 kts 215°
2026-05-07 20:25 48.75116 16.87526 13067 ft 307 kts 215°
2026-05-07 20:25 48.73369 16.85652 12640 ft 313 kts 215°
2026-05-07 20:26 48.71606 16.83766 12191 ft 306 kts 215°
2026-05-07 20:26 48.69906 16.81947 11771 ft 306 kts 215°
2026-05-07 20:26 48.68154 16.80075 11328 ft 305 kts 215°
2026-05-07 20:26 48.66470 16.78276 10903 ft 297 kts 215°
2026-05-07 20:27 48.64819 16.76513 10509 ft 302 kts 215°
2026-05-07 20:27 48.63152 16.74736 10258 ft 287 kts 215°
2026-05-07 20:27 48.61601 16.73083 10096 ft 272 kts 215°
2026-05-07 20:27 48.60088 16.71473 9755 ft 271 kts 215°
2026-05-07 20:28 48.58544 16.69831 9384 ft 272 kts 215°
2026-05-07 20:28 48.56994 16.68183 9032 ft 269 kts 215°
2026-05-07 20:28 48.55489 16.66584 8696 ft 266 kts 215°
2026-05-07 20:28 48.53990 16.64994 8362 ft 262 kts 215°
2026-05-07 20:29 48.52506 16.63419 8032 ft 259 kts 215°
2026-05-07 20:29 48.51059 16.61886 7799 ft 251 kts 215°
2026-05-07 20:29 48.49650 16.60394 7584 ft 244 kts 215°
2026-05-07 20:29 48.48294 16.58959 7378 ft 237 kts 215°
2026-05-07 20:30 48.47142 16.57740 7201 ft 231 kts 215°
2026-05-07 20:30 48.45851 16.56375 7004 ft 224 kts 215°
2026-05-07 20:30 48.44604 16.55057 6811 ft 217 kts 215°
2026-05-07 20:30 48.43373 16.53758 6567 ft 214 kts 215°
2026-05-07 20:31 48.42171 16.52490 6330 ft 210 kts 215°
2026-05-07 20:31 48.40992 16.51247 6101 ft 205 kts 215°
2026-05-07 20:31 48.39849 16.50042 5925 ft 198 kts 215°
2026-05-07 20:31 48.38719 16.48852 5693 ft 201 kts 215°
2026-05-07 20:32 48.37546 16.47689 5470 ft 200 kts 206°
2026-05-07 20:32 48.36200 16.47441 5282 ft 200 kts 168°
2026-05-07 20:32 48.34878 16.48108 5119 ft 201 kts 165°
2026-05-07 20:32 48.33541 16.48662 4984 ft 199 kts 166°
2026-05-07 20:33 48.32211 16.49233 4762 ft 201 kts 166°
2026-05-07 20:33 48.30928 16.49777 4513 ft 199 kts 166°
2026-05-07 20:33 48.29644 16.50325 4250 ft 197 kts 167°
2026-05-07 20:33 48.28314 16.50894 3965 ft 194 kts 166°
2026-05-07 20:34 48.27040 16.51434 3710 ft 192 kts 167°
2026-05-07 20:34 48.25764 16.51972 3444 ft 193 kts 167°
2026-05-07 20:34 48.24490 16.52516 3176 ft 190 kts 167°
2026-05-07 20:34 48.23193 16.53063 2910 ft 192 kts 167°
2026-05-07 20:35 48.21935 16.53602 2650 ft 190 kts 167°
2026-05-07 20:35 48.20690 16.54129 2386 ft 183 kts 168°
2026-05-07 20:35 48.19530 16.54624 2143 ft 164 kts 168°
2026-05-07 20:35 48.18463 16.55073 1945 ft 156 kts 169°
2026-05-07 20:36 48.17639 16.55424 1823 ft 151 kts 169°
2026-05-07 20:36 48.16604 16.55862 1518 ft 136 kts 170°
2026-05-07 20:36 48.15743 16.56225 1457 ft 130 kts 171°
2026-05-07 20:36 48.14928 16.56572 1230 ft 130 kts 171°
2026-05-07 20:37 48.14063 16.56934 1051 ft 129 kts 171°
2026-05-07 20:37 48.13250 16.57307 938 ft 130 kts 171°
2026-05-07 20:37 48.12429 16.57652 764 ft 123 kts 173°
2026-05-07 20:37 48.11630 16.57973 605 ft 117 kts 172°
2026-05-07 20:38 48.10939 16.58250 597 ft 75 kts 165°
2026-05-07 20:38 48.10624 16.58392 600 ft 34 kts 165°
2026-05-07 20:38 48.10457 16.58458 601 ft 19 kts 171°
2026-05-07 20:38 48.10315 16.58462 601 ft 22 kts 186°
2026-05-07 20:39 48.10186 16.58423 602 ft 14 kts 194°
2026-05-07 20:39 48.10130 16.58391 602 ft 8 kts 219°
2026-05-07 20:39 48.10093 16.58285 604 ft 10 kts 256°
2026-05-07 20:39 48.10110 16.58197 606 ft 11 kts 324°
2026-05-07 20:40 48.10202 16.58152 607 ft 16 kts 343°
2026-05-07 20:40 48.10328 16.58099 606 ft 19 kts 344°
2026-05-07 20:40 48.10451 16.58047 604 ft 17 kts 345°
2026-05-07 20:40 48.10569 16.57997 603 ft 18 kts 344°
2026-05-07 20:41 48.10701 16.57942 603 ft 21 kts 344°
2026-05-07 20:41 48.10837 16.57884 600 ft 18 kts 345°
2026-05-07 20:41 48.10967 16.57829 600 ft 21 kts 344°
2026-05-07 20:41 48.11097 16.57774 598 ft 14 kts 342°
2026-05-07 20:42 48.11165 16.57693 597 ft 13 kts 297°
2026-05-07 20:42 48.11213 16.57545 599 ft 18 kts 296°
2026-05-07 20:42 48.11275 16.57355 603 ft 22 kts 296°
2026-05-07 20:42 48.11347 16.57135 607 ft 24 kts 296°
2026-05-07 20:43 48.11421 16.56908 606 ft 22 kts 296°
2026-05-07 20:43 48.11491 16.56692 604 ft 24 kts 295°
2026-05-07 20:43 48.11560 16.56482 599 ft 24 kts 296°
2026-05-07 20:43 48.11642 16.56227 591 ft 27 kts 296°
2026-05-07 20:44 48.11722 16.55984 587 ft 25 kts 295°
2026-05-07 20:44 48.11795 16.55758 584 ft 22 kts 297°
2026-05-07 20:44 48.11848 16.55590 584 ft 15 kts 296°
2026-05-07 20:44 48.11887 16.55456 584 ft 14 kts 287°
2026-05-07 20:45 48.11927 16.55315 584 ft 6 kts 295°
2026-05-07 20:45 48.11942 16.55309 584 ft 8 kts 15°
2026-05-07 20:45 48.12025 16.55361 583 ft 12 kts 25°
2026-05-07 20:45 48.12096 16.55412 582 ft 8 kts 26°
2026-05-07 20:46 48.12139 16.55438 582 ft 4 kts 354°
2026-05-07 20:46 48.12161 16.55397 582 ft 3 kts 297°
2026-05-07 20:46 48.12166 16.55382 581 ft 0 kts 296°
2026-05-07 20:47 48.12166 16.55383 581 ft 0 kts 296°